Theta_e
311 312 312 313 312 312 311 311 311 311 311 312 312 314 316 318 318 318 323 325 323 319 319 327 328 328 329 334 336 336 338 340 338 339 338 342 340 338 338 340 339 339 338 338 338
311 312 312 313 312 312 312 312 312 312 312 313 315 317 318 319 320 323 327 325 319 317 325 327 327 327 335 335 335 335 333 337 335 335 340 340 339 338 337 338 338 338 337 336 334
311 311 312 312 312 312 312 312 312 312 314 316 317 319 320 320 324 326 325 319 319 323 327 328 334 334 334 334 335 337 336 335 336 335 340 338 338 336 335 335 337 336 337 336 332
312 312 312 313 313 313 312 313 313 314 315 316 319 320 320 321 325 321 321 322 323 326 326 330 333 334 333 336 334 335 337 339 341 341 341 339 337 334 335 335 336 336 336 336 329
312 312 313 314 313 313 313 313 314 314 315 318 319 320 320 321 327 323 323 322 323 324 323 328 334 334 332 334 333 335 335 340 340 340 339 337 336 334 334 335 334 332 329 327 327
312 313 315 314 314 313 314 314 315 315 316 318 319 320 320 325 324 322 323 325 327 328 329 328 334 333 335 335 334 334 335 337 338 338 335 335 335 335 334 333 331 331 328 326 325
312 315 315 315 314 314 314 315 316 316 317 318 320 321 322 327 324 325 326 326 327 327 327 327 332 333 335 336 336 336 332 333 329 339 337 336 338 335 333 332 330 329 327 324 326
312 316 316 315 314 314 315 316 317 317 318 320 321 324 325 327 325 326 326 326 326 327 327 335 332 334 333 333 333 335 336 333 329 338 338 338 341 334 332 331 329 326 325 325 327
312 316 316 315 315 315 316 317 318 318 320 321 322 326 327 325 325 325 325 325 325 326 330 334 335 335 333 332 335 333 331 335 336 330 334 336 339 334 333 332 330 327 324 326 328
312 316 316 316 317 317 317 319 320 320 320 321 322 321 323 327 326 326 326 325 325 325 328 333 329 329 330 331 337 336 333 335 336 334 332 336 337 336 335 335 333 330 329 326 327
312 315 316 318 321 320 319 322 325 328 324 321 320 320 322 327 324 325 325 325 325 325 321 323 328 330 329 335 334 335 334 336 334 329 332 333 335 333 331 333 333 332 328 327 328
312 314 316 321 321 321 319 320 327 329 326 326 326 325 325 327 326 324 325 324 324 322 322 325 329 332 332 333 335 335 335 335 333 331 333 334 334 332 332 332 331 328 325 328 328
313 314 317 322 322 320 320 324 325 326 324 326 327 328 328 326 325 324 324 324 322 322 327 327 330 333 333 333 334 331 333 333 334 334 332 331 331 333 332 330 328 328 328 328 327
313 314 318 321 322 325 325 324 325 327 321 325 327 327 327 326 324 325 324 324 321 321 329 330 330 332 333 334 333 335 333 334 334 334 336 332 334 334 333 328 325 324 323 325 327
313 314 318 321 324 324 323 325 325 328 329 330 325 326 325 325 325 325 324 323 323 330 328 331 330 331 331 333 330 331 332 330 333 333 333 333 328 331 329 331 329 325 325 324 328
313 314 317 322 323 323 325 325 326 324 330 327 326 324 325 324 325 326 326 325 329 331 330 330 331 331 331 331 330 329 329 327 326 328 330 329 328 331 331 331 330 328 327 325 327
313 314 316 321 324 323 325 327 324 326 328 333 325 325 324 324 326 328 332 330 330 330 329 332 333 333 331 329 328 322 321 324 325 332 337 331 328 328 328 328 328 328 327 326 325
313 314 316 323 323 323 324 326 334 333 335 334 335 332 324 331 334 334 332 331 329 329 329 331 331 333 330 330 332 327 322 323 329 331 332 328 331 326 326 327 328 329 327 326 324
313 314 315 321 323 323 325 332 333 335 335 336 333 334 332 332 333 335 331 332 329 328 331 331 332 330 329 327 326 327 328 324 327 326 329 331 331 328 328 326 326 325 325 324 324
314 315 315 322 323 323 325 330 334 336 335 334 334 334 333 331 332 335 333 329 331 327 328 330 331 329 329 326 325 326 326 326 323 328 332 330 329 329 324 327 326 326 326 325 324
318 323 319 323 323 325 325 330 333 333 333 334 333 333 330 329 334 334 329 327 326 325 325 324 325 329 327 326 325 324 324 326 324 326 329 333 329 322 319 320 324 325 326 325 324
318 326 322 323 322 327 328 334 333 333 331 330 329 329 328 329 333 329 328 327 325 325 323 324 325 329 328 326 325 324 324 324 326 329 326 324 325 322 317 317 319 323 323 324 323
327 332 327 324 323 326 331 333 333 332 329 327 328 327 328 328 331 329 328 326 329 328 330 328 327 331 331 325 324 323 319 323 321 319 325 324 326 317 318 318 318 318 318 319 319
322 332 324 325 331 329 332 333 334 331 327 327 327 328 327 329 328 331 329 329 331 333 330 327 323 327 329 327 324 322 318 318 319 321 322 323 322 317 316 317 317 317 318 319 318
327 331 329 321 327 329 330 331 332 331 329 327 326 327 328 328 331 333 332 330 330 330 328 323 324 323 323 324 322 319 319 318 318 318 318 319 320 318 317 316 318 318 318 318 317
328 337 335 331 331 331 329 331 333 328 327 327 328 327 325 330 330 332 331 332 334 333 330 325 325 326 329 323 321 321 322 323 324 321 321 321 321 319 320 319 319 319 319 318 317
334 334 336 332 332 332 332 333 333 330 328 329 327 325 327 328 330 330 330 331 332 332 331 328 328 330 331 329 325 323 323 324 324 323 322 323 322 321 321 320 320 320 319 318 318
Wind_Speed
13 13 11 11 10 9 8 9 8 6 7 7 8 9 8 8 5 2 4 2 5 5 9 10 5 4 5 10 13 5 4 4 9 8 4 14 6 8 8 11 8 8 23 20 22
13 13 12 11 10 8 8 8 8 7 7 8 9 9 9 8 3 4 2 1 3 7 9 8 10 12 18 8 5 8 2 3 4 6 5 11 11 8 6 12 13 26 24 22 24
15 13 12 10 9 8 8 8 7 7 7 7 9 9 9 7 7 1 5 6 7 7 7 15 23 30 18 17 8 4 2 7 3 10 23 13 18 8 16 5 10 20 22 23 24
14 12 11 8 9 8 8 6 6 7 7 8 8 9 7 5 1 3 10 9 6 6 4 12 20 19 7 6 14 7 8 12 25 18 11 3 13 7 8 7 19 23 22 22 24
15 12 10 8 9 8 6 4 6 7 7 7 8 9 9 7 2 6 6 6 4 2 3 13 24 20 8 5 6 4 6 18 38 29 20 21 14 12 16 23 21 19 19 22 21
14 10 9 8 8 7 5 4 5 7 7 7 9 10 10 3 5 5 4 4 3 3 4 9 10 11 13 4 3 5 9 9 11 14 15 18 16 9 14 19 22 17 15 15 18
13 10 9 8 7 6 5 4 4 6 6 7 10 13 11 5 7 4 8 6 5 7 8 8 12 11 14 10 7 10 3 4 6 5 5 28 7 7 21 17 15 20 15 19 20
12 9 9 7 6 5 5 4 4 6 6 7 10 11 6 2 4 2 3 5 9 7 6 3 16 14 3 14 7 4 2 2 4 8 7 1 6 18 23 23 21 24 25 22 21
11 8 8 6 5 5 6 4 3 6 6 7 7 7 5 2 7 2 4 8 14 2 7 13 11 5 6 6 4 3 4 2 6 6 5 5 11 16 18 19 20 17 24 23 21
10 7 8 5 5 6 7 6 5 6 6 7 9 5 8 7 9 4 5 7 11 9 7 8 4 3 3 4 4 5 4 4 6 5 8 15 10 13 13 12 17 22 21 20 21
9 7 7 4 6 6 6 6 6 2 8 9 6 10 6 3 6 8 1 3 9 9 5 6 7 4 7 7 6 6 4 6 7 2 10 7 7 5 4 10 20 14 23 20 19
8 6 6 4 5 4 4 5 8 10 10 18 18 23 24 21 11 13 10 5 4 3 1 5 4 1 9 10 8 5 3 1 11 14 12 8 6 6 14 12 25 28 22 25 19
7 5 5 4 4 4 8 6 19 14 3 18 14 14 15 11 21 17 19 13 8 1 1 5 2 6 6 4 6 5 3 2 4 13 19 7 9 4 10 13 12 21 24 22 20
6 6 5 4 2 6 9 18 12 10 4 6 3 6 12 14 8 17 22 12 3 10 6 1 2 4 4 4 2 3 4 5 18 7 4 2 4 5 5 6 9 18 15 15 21
6 6 7 4 3 6 16 17 7 2 1 6 7 6 10 12 5 11 26 20 6 4 6 3 3 4 2 4 4 6 3 6 18 11 5 7 5 3 4 3 9 16 13 8 20
6 6 9 7 4 9 15 11 7 5 4 4 6 7 4 9 15 6 5 10 2 5 6 4 1 3 2 5 3 3 3 13 6 5 5 6 2 3 2 6 4 14 16 10 17
5 6 10 8 3 9 17 12 5 3 5 5 2 3 6 5 4 6 6 8 4 5 5 3 4 2 4 7 6 11 6 3 4 5 2 7 4 4 5 3 7 12 15 15 15
5 6 12 10 0 10 17 4 3 4 4 5 9 8 3 7 8 11 10 9 11 5 3 3 7 6 6 1 2 4 3 5 1 4 2 6 3 5 2 7 9 4 9 12 18
4 5 11 9 3 7 10 4 5 4 4 12 5 8 5 6 7 6 11 6 6 6 4 3 5 5 13 18 5 6 4 1 7 4 4 2 3 7 5 4 5 8 13 19 12
2 3 7 12 5 7 3 4 4 3 11 12 1 3 5 6 3 5 4 5 3 11 2 2 4 9 5 9 12 5 4 5 4 4 3 2 2 3 6 4 6 10 9 11 13
2 2 16 14 6 3 2 3 5 25 18 4 0 3 3 4 5 4 4 3 6 6 11 3 4 6 9 6 5 6 5 5 5 4 4 4 2 5 3 0 4 2 7 12 15
2 3 11 10 1 1 1 3 8 7 8 6 8 7 4 7 6 5 5 5 7 5 3 3 5 5 11 5 5 2 4 4 4 1 3 4 1 3 0 9 10 5 7 10 17
3 4 5 13 2 3 2 5 4 5 5 6 7 7 6 5 6 9 4 3 11 5 2 3 2 4 5 6 8 7 10 5 5 3 3 4 0 6 7 6 2 3 6 8 10
3 2 1 4 3 6 2 4 7 4 12 18 4 15 8 10 6 4 5 3 12 13 11 10 5 5 4 5 2 6 12 13 7 6 4 3 3 7 6 3 4 10 10 3 5
3 3 1 2 3 7 3 1 8 1 6 11 9 9 5 6 8 6 6 3 11 11 8 6 5 8 5 4 10 7 11 14 12 5 6 5 7 6 9 5 11 13 14 14 9
3 4 6 4 3 13 6 7 6 9 7 6 9 7 9 5 5 3 5 3 1 7 5 5 2 3 5 10 14 9 11 12 11 8 7 5 7 12 17 15 22 22 21 21 16
8 6 2 4 4 5 3 3 3 5 17 10 15 8 10 9 18 17 18 11 6 5 2 4 4 3 1 2 3 9 8 11 10 11 3 6 3 10 19 17 16 22 22 19 18
Wind_Direction
345 338 337 339 335 336 346 10 350 339 333 332 330 340 334 337 341 104 119 20 75 83 103 88 87 17 7 56 75 47 68 182 176 169 211 139 111 62 80 114 71 113 123 125 137
342 339 336 341 338 341 358 11 346 335 345 347 347 347 345 347 319 229 204 73 68 127 134 44 17 70 80 58 78 63 53 256 154 165 108 88 104 116 101 98 91 117 125 128 141
341 339 335 345 336 348 0 3 342 335 356 346 356 354 355 344 329 34 160 126 122 127 106 66 94 122 77 58 57 55 335 296 84 105 100 95 69 106 114 58 139 139 138 137 147
340 336 335 344 344 348 353 355 333 336 350 354 360 359 349 337 71 112 110 112 122 139 117 89 79 87 61 130 142 133 2 62 60 94 120 101 123 94 97 137 148 145 146 147 150
340 338 335 341 343 340 344 343 330 330 347 358 359 360 345 329 344 154 119 131 133 174 123 111 101 107 149 184 112 109 118 97 135 170 139 131 120 106 98 140 140 141 148 146 148
338 335 333 334 339 335 321 311 328 325 349 354 358 348 335 322 33 135 130 119 104 47 81 129 123 125 127 105 44 73 88 113 135 159 135 111 121 79 129 137 134 146 154 152 142
335 333 329 329 336 320 283 304 322 323 343 346 352 338 332 33 55 122 102 86 34 354 343 199 203 169 142 128 117 82 43 236 348 166 109 112 86 99 144 155 150 147 156 159 151
331 330 324 328 324 297 277 299 310 318 333 336 352 341 323 57 133 44 86 67 1 333 327 222 196 142 50 116 55 77 76 290 203 175 127 97 90 146 161 164 161 163 160 166 163
330 325 318 324 317 285 287 281 289 316 320 322 338 346 320 171 210 49 315 344 348 322 206 167 174 100 106 100 51 53 268 211 316 117 113 71 135 173 180 178 174 167 180 167 163
329 319 312 321 313 292 292 289 298 305 301 303 281 309 252 217 232 231 276 294 315 321 125 143 78 105 40 59 175 211 235 238 225 86 73 87 128 173 193 188 191 181 210 179 191
327 312 302 309 309 311 289 302 324 274 286 248 275 234 278 307 193 220 265 251 289 311 25 18 78 86 175 164 264 185 213 221 75 11 59 110 167 208 284 279 230 207 128 184 196
326 304 285 298 313 332 269 259 353 331 310 299 285 268 268 270 256 207 201 224 264 277 5 15 160 172 97 144 150 198 184 326 87 110 85 113 99 31 48 54 100 106 165 179 196
323 292 264 281 329 250 243 303 329 323 284 301 277 262 263 227 211 213 208 208 219 256 262 169 37 152 144 137 131 224 170 146 143 95 130 93 56 31 79 100 127 161 168 184 180
318 275 249 278 287 321 6 345 340 299 53 279 235 252 240 215 262 232 222 197 153 208 164 86 269 106 62 64 79 330 250 253 130 117 172 198 142 29 110 122 151 171 182 201 190
309 272 243 239 287 352 336 349 357 261 21 255 228 215 183 194 248 224 219 208 161 199 102 250 13 355 346 176 205 238 222 93 109 109 103 7 82 212 183 190 202 227 229 224 195
293 259 247 244 331 353 350 345 344 46 267 293 163 175 170 212 235 239 171 210 143 108 52 181 339 53 261 250 183 260 42 101 95 98 56 304 116 308 5 294 201 225 241 218 200
282 250 242 244 72 351 350 356 45 123 301 303 219 190 189 242 221 109 65 43 66 53 14 343 343 303 2 3 24 49 52 2 2 36 87 325 42 250 304 328 285 235 231 215 220
283 248 230 229 334 345 344 51 84 267 268 261 285 244 203 108 66 70 74 59 29 68 80 65 8 4 337 16 238 47 140 148 218 145 151 351 14 283 279 336 2 233 215 197 177
282 260 233 193 217 321 351 46 218 222 266 338 306 54 9 50 107 91 66 44 39 19 90 52 49 36 66 47 41 327 19 50 102 57 87 310 345 303 285 271 140 145 166 186 201
340 288 214 158 199 300 60 240 246 250 341 347 48 34 49 356 90 86 72 332 28 35 52 310 128 5 67 34 15 57 286 23 15 113 116 145 320 281 330 301 197 215 217 200 195
3 349 140 159 210 282 164 245 313 322 313 178 217 75 109 80 67 70 49 340 33 344 50 33 83 345 49 22 17 353 16 50 108 96 136 152 287 236 125 79 110 220 220 206 209
338 51 151 171 117 280 70 308 340 346 58 85 51 44 57 67 52 71 63 56 342 320 52 13 99 83 106 43 20 353 346 109 110 119 92 124 276 23 138 113 112 167 211 204 221
6 344 155 175 149 317 231 330 343 319 41 39 47 41 26 37 79 117 103 139 74 65 36 353 63 102 299 1 349 35 32 41 89 77 12 101 112 14 95 84 52 9 345 244 202
12 28 208 191 158 126 254 39 341 350 65 74 77 56 48 24 37 119 135 56 68 85 85 76 27 120 138 184 217 50 51 53 88 78 76 109 119 358 347 139 71 60 63 85 201
14 289 268 218 268 120 113 79 329 348 91 77 19 79 107 43 38 34 43 73 52 64 72 96 85 109 121 101 69 82 70 62 81 144 90 79 79 341 327 50 58 51 31 40 55
17 0 329 87 42 73 31 27 343 53 40 18 100 80 86 91 121 76 110 67 108 37 65 23 149 70 52 80 75 61 80 61 51 51 71 86 68 358 9 32 49 41 29 17 352
15 352 299 348 51 81 145 210 313 325 31 116 119 96 97 146 111 105 99 101 101 129 110 93 130 87 266 15 62 32 357 90 76 39 18 43 318 17 17 2 39 29 12 352 340